AUA25N LOWW-EDDH

Flight info

Callsign AUA25N
Flight time 1h 11m
Altitude 36000
Route LANUX DCT LALUK DCT MILGU DCT SOGMA M748 RARUP RARUP3P
Aircraft A320/M-SDE3FGHIRWY/LB1

Departure

Time 2026-04-26 11:15
Airport Vienna International Airport (LOWW)

Arrival

Time 2026-04-26 12:26
Airport Hamburg Helmut Schmidt Airport (EDDH)
Time Latitude Longitude Altitude Speed Heading
2026-04-26 10:47 48.11673 16.56897 622 ft 0 kts 24°
2026-04-26 11:05 48.11673 16.56896 610 ft 1 kts 24°
2026-04-26 11:06 48.11650 16.56881 621 ft 4 kts 26°
2026-04-26 11:06 48.11627 16.56862 623 ft 4 kts 35°
2026-04-26 11:06 48.11609 16.56836 618 ft 4 kts 86°
2026-04-26 11:06 48.11609 16.56825 621 ft 0 kts 116°
2026-04-26 11:10 48.11606 16.56835 610 ft 4 kts 116°
2026-04-26 11:10 48.11597 16.56862 623 ft 0 kts 116°
2026-04-26 11:11 48.11581 16.56900 622 ft 7 kts 131°
2026-04-26 11:11 48.11541 16.56917 610 ft 6 kts 186°
2026-04-26 11:11 48.11492 16.56889 612 ft 9 kts 205°
2026-04-26 11:11 48.11440 16.56853 614 ft 8 kts 205°
2026-04-26 11:12 48.11394 16.56821 614 ft 7 kts 200°
2026-04-26 11:12 48.11348 16.56856 617 ft 9 kts 123°
2026-04-26 11:12 48.11320 16.56933 612 ft 8 kts 116°
2026-04-26 11:12 48.11297 16.57004 618 ft 7 kts 116°
2026-04-26 11:13 48.11277 16.57066 617 ft 6 kts 116°
2026-04-26 11:13 48.11259 16.57122 621 ft 7 kts 116°
2026-04-26 11:13 48.11238 16.57184 622 ft 7 kts 116°
2026-04-26 11:13 48.11199 16.57242 613 ft 8 kts 171°
2026-04-26 11:14 48.11152 16.57215 613 ft 8 kts 205°
2026-04-26 11:14 48.11098 16.57176 612 ft 8 kts 206°
2026-04-26 11:14 48.11052 16.57138 620 ft 7 kts 226°
2026-04-26 11:14 48.11062 16.57079 618 ft 8 kts 295°
2026-04-26 11:15 48.11164 16.56767 617 ft 70 kts 296°
2026-04-26 11:15 48.11479 16.55809 616 ft 132 kts 296°
2026-04-26 11:15 48.11922 16.54387 903 ft 158 kts 297°
2026-04-26 11:15 48.12181 16.52781 1855 ft 163 kts 270°
2026-04-26 11:16 48.12044 16.50989 2396 ft 184 kts 264°
2026-04-26 11:16 48.11826 16.48970 2827 ft 210 kts 263°
2026-04-26 11:16 48.11699 16.46678 3385 ft 234 kts 277°
2026-04-26 11:16 48.11908 16.44183 4191 ft 246 kts 279°
2026-04-26 11:17 48.12161 16.41635 5294 ft 249 kts 280°
2026-04-26 11:17 48.12431 16.39057 6304 ft 253 kts 281°
2026-04-26 11:17 48.12712 16.36436 7244 ft 257 kts 281°
2026-04-26 11:17 48.12995 16.33772 8125 ft 262 kts 281°
2026-04-26 11:18 48.13282 16.31055 9027 ft 266 kts 282°
2026-04-26 11:18 48.13574 16.28289 9935 ft 272 kts 282°
2026-04-26 11:18 48.13941 16.25447 10481 ft 289 kts 288°
2026-04-26 11:18 48.14766 16.22589 10794 ft 309 kts 302°
2026-04-26 11:19 48.16188 16.20128 11411 ft 318 kts 321°
2026-04-26 11:19 48.18090 16.18395 12185 ft 323 kts 330°
2026-04-26 11:19 48.20083 16.16791 13014 ft 327 kts 331°
2026-04-26 11:19 48.22104 16.15187 13820 ft 331 kts 331°
2026-04-26 11:20 48.24152 16.13570 14553 ft 335 kts 331°
2026-04-26 11:20 48.25520 16.12491 15031 ft 336 kts 330°
2026-04-26 11:20 48.28306 16.10288 15990 ft 341 kts 330°
2026-04-26 11:20 48.30410 16.08621 16704 ft 344 kts 330°
2026-04-26 11:21 48.32533 16.06934 17413 ft 347 kts 330°
2026-04-26 11:21 48.34674 16.05229 18115 ft 350 kts 330°
2026-04-26 11:21 48.36832 16.03506 18758 ft 353 kts 330°
2026-04-26 11:21 48.38979 16.01788 19317 ft 356 kts 329°
2026-04-26 11:22 48.41176 16.00032 19909 ft 359 kts 329°
2026-04-26 11:22 48.43385 15.98264 20490 ft 362 kts 329°
2026-04-26 11:22 48.45617 15.96477 21055 ft 365 kts 329°
2026-04-26 11:22 48.47866 15.94676 21604 ft 368 kts 329°
2026-04-26 11:23 48.50135 15.92860 22154 ft 371 kts 329°
2026-04-26 11:23 48.52424 15.91031 22698 ft 374 kts 329°
2026-04-26 11:23 48.54729 15.89187 23224 ft 377 kts 329°
2026-04-26 11:23 48.57053 15.87322 23745 ft 380 kts 328°
2026-04-26 11:24 48.59392 15.85438 24193 ft 382 kts 328°
2026-04-26 11:24 48.61746 15.83540 24635 ft 385 kts 328°
2026-04-26 11:24 48.64114 15.81627 25065 ft 387 kts 328°
2026-04-26 11:24 48.66497 15.79702 25487 ft 390 kts 328°
2026-04-26 11:25 48.68898 15.77759 25903 ft 392 kts 328°
2026-04-26 11:25 48.71311 15.75804 26306 ft 395 kts 328°
2026-04-26 11:25 48.73741 15.73834 26717 ft 397 kts 328°
2026-04-26 11:25 48.76181 15.71853 27125 ft 400 kts 328°
2026-04-26 11:26 48.78608 15.69886 27520 ft 402 kts 328°
2026-04-26 11:26 48.81116 15.67854 27930 ft 405 kts 328°
2026-04-26 11:26 48.83605 15.65832 28319 ft 407 kts 328°
2026-04-26 11:26 48.86075 15.63818 28707 ft 410 kts 327°
2026-04-26 11:27 48.88591 15.61759 29084 ft 412 kts 327°
2026-04-26 11:27 48.91114 15.59657 29448 ft 414 kts 327°
2026-04-26 11:27 48.93628 15.57499 29819 ft 416 kts 326°
2026-04-26 11:27 48.96145 15.55302 30184 ft 418 kts 326°
2026-04-26 11:28 48.98673 15.53079 30484 ft 420 kts 326°
2026-04-26 11:28 49.01211 15.50845 30777 ft 422 kts 326°
2026-04-26 11:28 49.03764 15.48606 31065 ft 424 kts 326°
2026-04-26 11:28 49.06330 15.46363 31354 ft 426 kts 326°
2026-04-26 11:29 49.08909 15.44110 31646 ft 427 kts 326°
2026-04-26 11:29 49.11485 15.41864 32052 ft 426 kts 326°
2026-04-26 11:29 49.14058 15.39620 32461 ft 425 kts 326°
2026-04-26 11:29 49.16619 15.37381 32868 ft 424 kts 326°
2026-04-26 11:30 49.19173 15.35145 33261 ft 423 kts 326°
2026-04-26 11:30 49.20863 15.33666 33520 ft 422 kts 326°
2026-04-26 11:30 49.24266 15.30677 34033 ft 421 kts 326°
2026-04-26 11:30 49.26773 15.28469 34407 ft 421 kts 326°
2026-04-26 11:31 49.29307 15.26233 34746 ft 420 kts 326°
2026-04-26 11:31 49.31834 15.24002 35084 ft 419 kts 326°
2026-04-26 11:31 49.34359 15.21771 35411 ft 419 kts 326°
2026-04-26 11:31 49.36883 15.19541 35720 ft 418 kts 326°
2026-04-26 11:32 49.39400 15.17318 36032 ft 417 kts 326°
2026-04-26 11:32 49.41916 15.15087 36231 ft 418 kts 326°
2026-04-26 11:32 49.46924 15.10637 36272 ft 415 kts 326°
2026-04-26 11:33 49.51919 15.06194 36273 ft 414 kts 326°
2026-04-26 11:33 49.56909 15.01748 36276 ft 414 kts 326°
2026-04-26 11:34 49.61893 14.97289 36276 ft 414 kts 326°
2026-04-26 11:34 49.66874 14.92821 36278 ft 414 kts 326°
2026-04-26 11:35 49.71851 14.88342 36278 ft 414 kts 326°
2026-04-26 11:35 49.75985 14.84620 36279 ft 414 kts 326°
2026-04-26 11:36 49.81766 14.79405 36279 ft 414 kts 326°
2026-04-26 11:36 49.86743 14.74911 36282 ft 414 kts 326°
2026-04-26 11:37 49.91715 14.70409 36289 ft 414 kts 326°
2026-04-26 11:37 49.95878 14.66611 36292 ft 414 kts 326°
2026-04-26 11:38 49.99052 14.63712 36295 ft 414 kts 326°
2026-04-26 11:38 50.04022 14.59179 36299 ft 414 kts 326°
2026-04-26 11:39 50.08986 14.54635 36298 ft 414 kts 326°
2026-04-26 11:39 50.13955 14.50084 36300 ft 414 kts 326°
2026-04-26 11:40 50.18926 14.45528 36304 ft 414 kts 326°
2026-04-26 11:40 50.23888 14.40953 36301 ft 414 kts 326°
2026-04-26 11:42 50.42896 14.23330 36291 ft 415 kts 326°
2026-04-26 11:43 50.47865 14.18705 36287 ft 415 kts 326°
2026-04-26 11:43 50.52825 14.14058 36289 ft 415 kts 325°
2026-04-26 11:44 50.57790 14.09399 36287 ft 416 kts 325°
2026-04-26 11:44 50.62755 14.04731 36260 ft 416 kts 326°
2026-04-26 11:45 50.67736 14.00052 36268 ft 417 kts 326°
2026-04-26 11:45 50.72718 13.95358 36276 ft 417 kts 326°
2026-04-26 11:46 50.77695 13.90641 36282 ft 417 kts 326°
2026-04-26 11:46 50.82634 13.85827 36299 ft 417 kts 324°
2026-04-26 11:47 50.87411 13.80644 36309 ft 416 kts 322°
2026-04-26 11:47 50.92127 13.75347 36317 ft 416 kts 322°
2026-04-26 11:48 50.96865 13.70090 36324 ft 416 kts 322°
2026-04-26 11:48 51.01625 13.64880 36330 ft 416 kts 323°
2026-04-26 11:49 51.06392 13.59669 36330 ft 416 kts 323°
2026-04-26 11:49 51.11118 13.54477 36330 ft 416 kts 322°
2026-04-26 11:50 51.15897 13.49191 36324 ft 416 kts 322°
2026-04-26 11:50 51.20616 13.43959 36325 ft 416 kts 322°
2026-04-26 11:51 51.25365 13.38679 36319 ft 416 kts 322°
2026-04-26 11:51 51.30113 13.33389 36315 ft 416 kts 322°
2026-04-26 11:52 51.34856 13.28096 36315 ft 416 kts 322°
2026-04-26 11:52 51.39596 13.22794 36315 ft 415 kts 322°
2026-04-26 11:53 51.44327 13.17476 36316 ft 415 kts 322°
2026-04-26 11:54 51.51432 13.09490 36325 ft 416 kts 322°
2026-04-26 11:54 51.56169 13.04150 36328 ft 416 kts 322°
2026-04-26 11:55 51.60948 12.98906 36330 ft 416 kts 323°
2026-04-26 11:55 51.65759 12.93720 36333 ft 416 kts 323°
2026-04-26 11:56 51.70567 12.88532 36334 ft 416 kts 323°
2026-04-26 11:56 51.75342 12.83367 36331 ft 416 kts 323°
2026-04-26 11:57 51.80152 12.78158 36332 ft 416 kts 323°
2026-04-26 11:57 51.84957 12.72945 36328 ft 416 kts 323°
2026-04-26 11:58 51.89759 12.67711 36325 ft 416 kts 323°
2026-04-26 11:58 51.94560 12.62459 36323 ft 416 kts 323°
2026-04-26 11:59 51.99350 12.57198 36327 ft 416 kts 323°
2026-04-26 11:59 52.04136 12.51939 36328 ft 416 kts 323°
2026-04-26 12:00 52.08926 12.46672 36322 ft 415 kts 322°
2026-04-26 12:00 52.13675 12.41429 36318 ft 415 kts 322°
2026-04-26 12:01 52.18445 12.36136 36316 ft 415 kts 322°
2026-04-26 12:01 52.23215 12.30843 36316 ft 415 kts 322°
2026-04-26 12:02 52.27986 12.25546 36318 ft 415 kts 322°
2026-04-26 12:02 52.32750 12.20232 36315 ft 414 kts 322°
2026-04-26 12:03 52.37507 12.14903 36315 ft 414 kts 322°
2026-04-26 12:03 52.42258 12.09566 36310 ft 414 kts 322°
2026-04-26 12:04 52.47009 12.04229 36307 ft 414 kts 322°
2026-04-26 12:04 52.51732 11.98918 36313 ft 414 kts 322°
2026-04-26 12:05 52.56483 11.93545 36314 ft 415 kts 322°
2026-04-26 12:05 52.61225 11.88153 36316 ft 415 kts 322°
2026-04-26 12:06 52.65977 11.82760 36316 ft 415 kts 322°
2026-04-26 12:06 52.70739 11.77333 35497 ft 420 kts 321°
2026-04-26 12:06 52.73140 11.74582 34680 ft 418 kts 321°
2026-04-26 12:07 52.75529 11.71845 33861 ft 419 kts 321°
2026-04-26 12:07 52.77935 11.69082 32881 ft 423 kts 321°
2026-04-26 12:07 52.80363 11.66294 31907 ft 427 kts 322°
2026-04-26 12:07 52.82803 11.63489 30987 ft 429 kts 322°
2026-04-26 12:08 52.85262 11.60659 29786 ft 430 kts 322°
2026-04-26 12:08 52.87693 11.57861 28741 ft 420 kts 322°
2026-04-26 12:08 52.90068 11.55131 28202 ft 411 kts 322°
2026-04-26 12:08 52.92397 11.52445 27551 ft 406 kts 322°
2026-04-26 12:09 52.94708 11.49775 26911 ft 402 kts 323°
2026-04-26 12:09 52.96965 11.47156 26290 ft 409 kts 323°
2026-04-26 12:09 52.99340 11.44392 25641 ft 421 kts 323°
2026-04-26 12:09 53.01745 11.41596 24979 ft 422 kts 323°
2026-04-26 12:10 53.04140 11.38813 24322 ft 419 kts 323°
2026-04-26 12:10 53.06518 11.36049 23639 ft 415 kts 323°
2026-04-26 12:10 53.08871 11.33310 22974 ft 411 kts 323°
2026-04-26 12:10 53.11208 11.30582 22404 ft 408 kts 323°
2026-04-26 12:11 53.13520 11.27877 21833 ft 405 kts 323°
2026-04-26 12:11 53.15818 11.25189 21295 ft 402 kts 323°
2026-04-26 12:11 53.18096 11.22519 20765 ft 399 kts 323°
2026-04-26 12:11 53.20356 11.19866 20255 ft 396 kts 323°
2026-04-26 12:12 53.22601 11.17228 19751 ft 393 kts 323°
2026-04-26 12:12 53.24832 11.14606 19262 ft 391 kts 323°
2026-04-26 12:12 53.27045 11.11998 18755 ft 388 kts 323°
2026-04-26 12:12 53.28502 11.10278 18395 ft 386 kts 323°
2026-04-26 12:13 53.31426 11.06827 17690 ft 383 kts 323°
2026-04-26 12:13 53.33592 11.04267 17183 ft 380 kts 324°
2026-04-26 12:13 53.35745 11.01713 16645 ft 377 kts 324°
2026-04-26 12:13 53.37879 10.99178 16118 ft 375 kts 324°
2026-04-26 12:14 53.39997 10.96659 15576 ft 372 kts 324°
2026-04-26 12:14 53.42100 10.94152 15040 ft 370 kts 324°
2026-04-26 12:14 53.44188 10.91662 14490 ft 367 kts 324°
2026-04-26 12:14 53.46263 10.89183 13929 ft 365 kts 324°
2026-04-26 12:15 53.48321 10.86723 13356 ft 362 kts 324°
2026-04-26 12:15 53.50364 10.84283 12800 ft 359 kts 324°
2026-04-26 12:15 53.52362 10.81898 12249 ft 355 kts 324°
2026-04-26 12:15 53.54356 10.79514 11757 ft 348 kts 324°
2026-04-26 12:16 53.56293 10.77195 11464 ft 337 kts 324°
2026-04-26 12:16 53.58167 10.74950 10982 ft 322 kts 324°
2026-04-26 12:16 53.59912 10.72854 10848 ft 295 kts 324°
2026-04-26 12:16 53.61521 10.70919 10622 ft 277 kts 324°
2026-04-26 12:17 53.63071 10.69053 10398 ft 271 kts 324°
2026-04-26 12:17 53.64533 10.67100 10218 ft 267 kts 316°
2026-04-26 12:17 53.65827 10.64849 10086 ft 267 kts 315°
2026-04-26 12:17 53.67116 10.62606 9832 ft 265 kts 315°
2026-04-26 12:18 53.68398 10.60379 9422 ft 264 kts 315°
2026-04-26 12:18 53.69677 10.58155 9025 ft 264 kts 315°
2026-04-26 12:18 53.70955 10.55932 8626 ft 264 kts 315°
2026-04-26 12:18 53.72230 10.53714 8228 ft 263 kts 315°
2026-04-26 12:19 53.73482 10.51534 7838 ft 262 kts 314°
2026-04-26 12:19 53.74751 10.49318 7421 ft 262 kts 314°
2026-04-26 12:19 53.76024 10.47092 6949 ft 267 kts 314°
2026-04-26 12:19 53.77316 10.44828 6538 ft 265 kts 314°
2026-04-26 12:20 53.78569 10.42630 6095 ft 257 kts 314°
2026-04-26 12:20 53.79795 10.40474 5616 ft 251 kts 312°
2026-04-26 12:20 53.80650 10.38014 5493 ft 239 kts 284°
2026-04-26 12:20 53.80632 10.35304 5372 ft 228 kts 252°
2026-04-26 12:21 53.79833 10.33047 5153 ft 224 kts 231°
2026-04-26 12:21 53.78848 10.31053 4858 ft 223 kts 230°
2026-04-26 12:21 53.77859 10.29046 4530 ft 222 kts 230°
2026-04-26 12:21 53.76878 10.27037 4228 ft 222 kts 231°
2026-04-26 12:22 53.75899 10.25031 3925 ft 221 kts 231°
2026-04-26 12:22 53.74919 10.23024 3628 ft 222 kts 231°
2026-04-26 12:22 53.73938 10.21018 3307 ft 218 kts 230°
2026-04-26 12:22 53.72982 10.19065 3014 ft 214 kts 231°
2026-04-26 12:23 53.72047 10.17155 2722 ft 208 kts 230°
2026-04-26 12:23 53.71135 10.15293 2443 ft 204 kts 230°
2026-04-26 12:23 53.70266 10.13522 2183 ft 188 kts 231°
2026-04-26 12:23 53.69470 10.11899 1931 ft 170 kts 230°
2026-04-26 12:24 53.68761 10.10455 1694 ft 152 kts 230°
2026-04-26 12:24 53.68114 10.09135 1486 ft 141 kts 231°
2026-04-26 12:24 53.67500 10.07891 1278 ft 136 kts 231°
2026-04-26 12:25 53.66309 10.05459 883 ft 134 kts 231°
2026-04-26 12:25 53.65717 10.04249 743 ft 134 kts 231°
2026-04-26 12:25 53.65123 10.03034 566 ft 134 kts 231°
2026-04-26 12:25 53.64522 10.01823 371 ft 135 kts 231°
2026-04-26 12:26 53.63920 10.00609 199 ft 135 kts 231°
2026-04-26 12:26 53.63323 9.99400 53 ft 129 kts 232°
2026-04-26 12:26 53.62836 9.98416 53 ft 86 kts 230°
2026-04-26 12:26 53.62570 9.97881 52 ft 32 kts 230°
2026-04-26 12:27 53.62490 9.97786 50 ft 11 kts 178°
2026-04-26 12:27 53.62432 9.97846 51 ft 9 kts 123°
2026-04-26 12:27 53.62429 9.97944 51 ft 8 kts 81°
2026-04-26 12:27 53.62439 9.98031 48 ft 7 kts 77°
2026-04-26 12:28 53.62468 9.98108 51 ft 11 kts 52°
2026-04-26 12:28 53.62527 9.98229 51 ft 15 kts 50°
2026-04-26 12:28 53.62596 9.98366 51 ft 16 kts 49°
2026-04-26 12:28 53.62673 9.98521 51 ft 18 kts 50°
2026-04-26 12:29 53.62761 9.98699 51 ft 21 kts 51°
2026-04-26 12:29 53.62857 9.98892 51 ft 21 kts 50°
2026-04-26 12:29 53.63021 9.99225 51 ft 15 kts 51°
2026-04-26 12:30 53.63085 9.99370 51 ft 16 kts 56°
2026-04-26 12:30 53.63151 9.99527 51 ft 17 kts 52°
2026-04-26 12:30 53.63213 9.99651 51 ft 11 kts 49°
2026-04-26 12:31 53.63152 9.99821 51 ft 11 kts 149°
2026-04-26 12:31 53.63155 9.99915 51 ft 9 kts 51°
2026-04-26 12:31 53.63195 9.99995 51 ft 10 kts 50°
2026-04-26 12:31 53.63235 10.00084 51 ft 9 kts 61°
2026-04-26 12:32 53.63251 10.00178 51 ft 8 kts 82°
2026-04-26 12:32 53.63229 10.00242 50 ft 6 kts 163°
2026-04-26 12:32 53.63193 10.00310 51 ft 4 kts 86°
2026-04-26 12:33 53.63194 10.00356 51 ft 4 kts 86°
2026-04-26 12:33 53.63195 10.00369 51 ft 0 kts 86°